Regional Weather Roundup
Issued by NWS

Home | Current Version | Previous Version | Graphics & Text | Print | Product List | Glossary On
Versions: 1 2 3 4 5 6 7 8 9 10 11 12 13 14 15 16 17 18 19 20 21 22 23 24 25 26 27 28 29 30 31 32 33 34 35 36 37 38 39 40 41 42 43 44 45 46 47 48 49 50
000
ASUS43 KFSD 201810
RWRSD

WEATHER ROUNDUP FOR SOUTH DAKOTA
NATIONAL WEATHER SERVICE SIOUX FALLS SD
1200 PM CST SAT JAN 20 2018

NOTE: "FAIR" INDICATES FEW OR NO CLOUDS BELOW 12,000 FEET WITH NO
SIGNIFICANT WEATHER AND/OR OBSTRUCTIONS TO VISIBILITY.


SDZ001>005-009-010-012>017-201900-
NORTHWEST AND NORTH CENTRAL SOUTH DAKOTA

CITY           SKY/WX    TMP DP  RH WIND       PRES   REMARKS
BUFFALO          N/A     37  28  70 W9        29.83F
FAITH            N/A     36  31  82 NW9       29.91R
MOBRIDGE       CLOUDY    44  35  70 W10       29.87S
$$

SDZ012>016-024>037-041>051-057-063-072>074-201900-
SOUTHWEST AND SOUTH CENTRAL SOUTH DAKOTA

CITY           SKY/WX    TMP DP  RH WIND       PRES   REMARKS
RAPID CTY ARPT CLOUDY    38  27  64 N7        29.92S
PIERRE         LGT RAIN  40  36  86 NW10      29.92R
CUSTER         CLOUDY    29  23  78 N6        29.86F WCI  23
ELLSWORTH AFB  CLOUDY    38  28  68 N8        29.91S
PHILIP         LGT RAIN  37  37 100 W6        29.95R
PINE RIDGE     CLOUDY    33  33 100 CALM      29.92S FOG
SPEARFISH        N/A     34  28  80 CALM      29.91F
WINNER         FAIR      38  33  82 NW7       29.92F
$$

SDZ004>011-016>023-039-040-201900-
NORTHEAST SOUTH DAKOTA

CITY           SKY/WX    TMP DP  RH WIND       PRES   REMARKS
ABERDEEN       CLOUDY    43  33  68 W7        29.89R
WATERTOWN      CLOUDY    38  30  73 SW5       29.88R
BROOKINGS      CLOUDY    40  32  73 CALM      29.90S
SISSETON         N/A     46  29  51 W9        29.85F
$$

SDZ017-020-022-023-036>040-048>070-201900-
SOUTHEAST SOUTH DAKOTA

CITY           SKY/WX    TMP DP  RH WIND       PRES   REMARKS
SIOUX FALLS    CLOUDY    41  34  76 CALM      29.90F
HURON          PTSUNNY   45  33  63 VRB5      29.90F
CHAMBERLAIN    PTSUNNY   37  35  94 CALM      29.91F
MITCHELL       PTSUNNY   37  32  82 NW3       29.93F
YANKTON        CLOUDY    36  31  82 NW10      29.91S
$$

ABBREVIATIONS USED IN REMARKS
   TC - TEMPERATURE IN CELSIUS
  WCI - WIND CHILL INDEX
   HX - HEAT INDEX
  VSB - VISIBILITY





USA.gov is the U.S. government's official web portal to all federal, state and local government web resources and services.